• In Deutschland
  • Länderverzeichnis
  • Für 7 Tage
  • Wassertemperatur
  • Satellitenkarten
  • Wetterkarte
  • Widgets
  • user-avatar
    Anmelden

    Stündliche Wetter Shaki

    Heute, 30 April, Sonntag

    Zeit Temperatur Niederschläge Wind Luftdruck Luftfeuchtigkeit
    00:00 +12°C° 0 mm 1 m/S 736 mmHg 73%
    01:00 +11°C° 0 mm 1 m/S 736 mmHg 75%
    02:00 +11°C° 0 mm 1 m/S 736 mmHg 76%
    03:00 +9°C° 0 mm 0 m/S 735 mmHg 78%
    04:00 +11°C° 0 mm 1 m/S 735 mmHg 74%
    05:00 +13°C° 0 mm 1 m/S 736 mmHg 69%
    06:00 +14°C° 0 mm 1 m/S 736 mmHg 65%
    07:00 +16°C° 0 mm 1 m/S 736 mmHg 57%
    08:00 +20°C° 0 mm 1 m/S 736 mmHg 48%
    09:00 +21°C° 0 mm 2 m/S 736 mmHg 39%
    10:00 +23°C° 0 mm 1 m/S 735 mmHg 37%
    11:00 +24°C° 0 mm 1 m/S 735 mmHg 34%
    12:00 +25°C° 0 mm 1 m/S 735 mmHg 32%
    13:00 +26°C° 0 mm 1 m/S 735 mmHg 31%
    14:00 +26°C° 0 mm 1 m/S 735 mmHg 30%
    15:00 +26°C° 0 mm 1 m/S 734 mmHg 29%
    16:00 +25°C° 0 mm 1 m/S 734 mmHg 35%
    17:00 +23°C° 0 mm 1 m/S 734 mmHg 40%
    18:00 +22°C° 0 mm 1 m/S 734 mmHg 46%
    19:00 +20°C° 0 mm 1 m/S 735 mmHg 43%
    20:00 +18°C° 0 mm 1 m/S 735 mmHg 40%
    21:00 +16°C° 0 mm 2 m/S 735 mmHg 38%
    22:00 +15°C° 0 mm 2 m/S 735 mmHg 39%
    23:00 +15°C° 0 mm 1 m/S 735 mmHg 41%

    Morgen, 1 Mai, Montag

    Zeit Temperatur Niederschläge Wind Luftdruck Luftfeuchtigkeit
    00:00 +14°C° 0 mm 1 m/S 735 mmHg 43%
    01:00 +14°C° 0 mm 1 m/S 735 mmHg 45%
    02:00 +13°C° 0 mm 1 m/S 735 mmHg 48%
    03:00 +13°C° 0 mm 1 m/S 735 mmHg 50%
    04:00 +14°C° 0 mm 2 m/S 735 mmHg 49%
    05:00 +15°C° 0 mm 2 m/S 735 mmHg 48%
    06:00 +16°C° 0 mm 2 m/S 735 mmHg 47%
    07:00 +19°C° 0 mm 2 m/S 735 mmHg 40%
    08:00 +21°C° 0 mm 2 m/S 735 mmHg 33%
    09:00 +25°C° 0 mm 2 m/S 736 mmHg 27%
    10:00 +26°C° 0 mm 2 m/S 735 mmHg 26%
    11:00 +27°C° 0 mm 2 m/S 735 mmHg 25%
    12:00 +28°C° 0 mm 1 m/S 735 mmHg 24%
    13:00 +28°C° 0 mm 1 m/S 735 mmHg 23%
    14:00 +29°C° 0 mm 1 m/S 735 mmHg 23%
    15:00 +29°C° 0 mm 1 m/S 734 mmHg 23%
    16:00 +27°C° 0 mm 1 m/S 734 mmHg 28%
    17:00 +25°C° 0 mm 1 m/S 735 mmHg 33%
    18:00 +24°C° 0 mm 1 m/S 735 mmHg 38%
    19:00 +22°C° 0 mm 1 m/S 735 mmHg 37%
    20:00 +19°C° 0 mm 2 m/S 735 mmHg 36%
    21:00 +17°C° 0 mm 2 m/S 735 mmHg 35%
    22:00 +17°C° 0 mm 2 m/S 735 mmHg 36%
    23:00 +16°C° 0 mm 2 m/S 735 mmHg 38%

    übermorgen, 2 Mai, Dienstag

    Zeit Temperatur Niederschläge Wind Luftdruck Luftfeuchtigkeit
    00:00 +16°C° 0 mm 1 m/S 735 mmHg 39%
    01:00 +16°C° 0 mm 1 m/S 735 mmHg 38%
    02:00 +16°C° 0 mm 1 m/S 735 mmHg 37%
    03:00 +16°C° 0 mm 1 m/S 735 mmHg 36%
    04:00 +18°C° 0 mm 1 m/S 735 mmHg 40%
    05:00 +18°C° 0 mm 1 m/S 735 mmHg 43%
    06:00 +19°C° 0 mm 1 m/S 735 mmHg 46%
    07:00 +21°C° 0 mm 1 m/S 735 mmHg 43%
    08:00 +21°C° 0 mm 2 m/S 736 mmHg 40%
    09:00 +24°C° 0 mm 2 m/S 736 mmHg 37%
    10:00 +25°C° 0 mm 2 m/S 736 mmHg 35%
    11:00 +26°C° 0 mm 2 m/S 735 mmHg 33%
    12:00 +27°C° 0 mm 2 m/S 735 mmHg 30%
    13:00 +28°C° 0 mm 3 m/S 735 mmHg 29%
    14:00 +28°C° 0 mm 3 m/S 734 mmHg 28%
    15:00 +29°C° 0 mm 3 m/S 734 mmHg 27%
    16:00 +27°C° 0 mm 3 m/S 734 mmHg 31%
    17:00 +26°C° 0 mm 2 m/S 734 mmHg 36%
    18:00 +24°C° 0 mm 2 m/S 733 mmHg 40%
    19:00 +23°C° 0 mm 2 m/S 734 mmHg 40%
    20:00 +21°C° 0 mm 2 m/S 734 mmHg 40%
    21:00 +19°C° 0 mm 2 m/S 734 mmHg 40%
    22:00 +19°C° 0,1 mm 2 m/S 734 mmHg 40%
    23:00 +19°C° 0,1 mm 2 m/S 733 mmHg 40%

    3 Mai, Mittwoch

    Zeit Temperatur Niederschläge Wind Luftdruck Luftfeuchtigkeit
    00:00 +20°C° 0,1 mm 1 m/S 733 mmHg 40%
    01:00 +19°C° 0,1 mm 1 m/S 733 mmHg 42%
    02:00 +19°C° 0,1 mm 1 m/S 733 mmHg 44%
    03:00 +19°C° 0,1 mm 1 m/S 732 mmHg 46%
    04:00 +18°C° 0 mm 2 m/S 732 mmHg 49%
    05:00 +18°C° 0 mm 2 m/S 732 mmHg 52%
    06:00 +18°C° 0 mm 2 m/S 732 mmHg 54%
    07:00 +20°C° 0 mm 2 m/S 733 mmHg 49%
    08:00 +23°C° 0 mm 2 m/S 733 mmHg 44%
    09:00 +25°C° 0 mm 2 m/S 733 mmHg 39%
    10:00 +26°C° 0,1 mm 2 m/S 732 mmHg 37%
    11:00 +27°C° 0,1 mm 2 m/S 732 mmHg 34%
    12:00 +28°C° 0,1 mm 2 m/S 732 mmHg 32%
    13:00 +28°C° 0,1 mm 2 m/S 731 mmHg 31%
    14:00 +28°C° 0,1 mm 2 m/S 731 mmHg 30%
    15:00 +28°C° 0,1 mm 2 m/S 731 mmHg 29%
    16:00 +27°C° 0 mm 2 m/S 731 mmHg 33%
    17:00 +26°C° 0 mm 2 m/S 731 mmHg 38%
    18:00 +24°C° 0 mm 1 m/S 731 mmHg 42%
    19:00 +22°C° 0,2 mm 1 m/S 731 mmHg 41%
    20:00 +21°C° 0,2 mm 1 m/S 731 mmHg 41%
    21:00 +18°C° 0,2 mm 2 m/S 732 mmHg 41%
    22:00 +17°C° 0,1 mm 2 m/S 732 mmHg 40%
    23:00 +17°C° 0,1 mm 2 m/S 731 mmHg 40%

    4 Mai, Donnerstag

    Zeit Temperatur Niederschläge Wind Luftdruck Luftfeuchtigkeit
    00:00 +17°C° 0,1 mm 2 m/S 731 mmHg 39%
    01:00 +16°C° 0 mm 2 m/S 731 mmHg 41%
    02:00 +16°C° 0 mm 2 m/S 731 mmHg 42%
    03:00 +15°C° 0 mm 2 m/S 731 mmHg 44%
    04:00 +16°C° 0 mm 2 m/S 731 mmHg 46%
    05:00 +17°C° 0 mm 2 m/S 732 mmHg 47%
    06:00 +18°C° 0 mm 2 m/S 732 mmHg 49%
    07:00 +20°C° 0 mm 2 m/S 732 mmHg 44%
    08:00 +22°C° 0 mm 3 m/S 732 mmHg 40%
    09:00 +25°C° 0 mm 3 m/S 732 mmHg 35%
    10:00 +26°C° 0 mm 3 m/S 732 mmHg 34%
    11:00 +26°C° 0 mm 2 m/S 732 mmHg 33%
    12:00 +27°C° 0 mm 2 m/S 732 mmHg 32%
    13:00 +27°C° 0,1 mm 2 m/S 732 mmHg 32%
    14:00 +27°C° 0,1 mm 2 m/S 732 mmHg 33%
    15:00 +27°C° 0,1 mm 1 m/S 731 mmHg 34%
    16:00 +26°C° 0 mm 1 m/S 732 mmHg 39%
    17:00 +25°C° 0 mm 1 m/S 732 mmHg 44%
    18:00 +24°C° 0 mm 1 m/S 732 mmHg 49%
    19:00 +22°C° 0 mm 1 m/S 732 mmHg 51%
    20:00 +20°C° 0 mm 1 m/S 732 mmHg 53%
    21:00 +18°C° 0 mm 1 m/S 732 mmHg 55%
    22:00 +16°C° 0 mm 1 m/S 733 mmHg 58%
    23:00 +16°C° 0 mm 1 m/S 733 mmHg 61%

    5 Mai, Freitag

    Zeit Temperatur Niederschläge Wind Luftdruck Luftfeuchtigkeit
    00:00 +15°C° 0 mm 1 m/S 733 mmHg 64%
    01:00 +15°C° 0 mm 1 m/S 733 mmHg 65%
    02:00 +14°C° 0 mm 1 m/S 733 mmHg 66%
    03:00 +14°C° 0 mm 1 m/S 733 mmHg 67%
    04:00 +15°C° 0 mm 1 m/S 733 mmHg 64%
    05:00 +16°C° 0 mm 1 m/S 733 mmHg 62%
    06:00 +18°C° 0 mm 1 m/S 734 mmHg 59%
    07:00 +20°C° 0 mm 1 m/S 734 mmHg 52%
    08:00 +22°C° 0 mm 1 m/S 734 mmHg 44%
    09:00 +24°C° 0 mm 2 m/S 734 mmHg 37%
    10:00 +25°C° 0 mm 1 m/S 734 mmHg 35%
    11:00 +26°C° 0 mm 1 m/S 733 mmHg 34%
    12:00 +27°C° 0 mm 1 m/S 733 mmHg 33%
    13:00 +27°C° 0,1 mm 2 m/S 733 mmHg 33%
    14:00 +27°C° 0,1 mm 2 m/S 733 mmHg 34%
    15:00 +27°C° 0,1 mm 2 m/S 732 mmHg 35%
    16:00 +26°C° 0,1 mm 2 m/S 733 mmHg 42%
    17:00 +25°C° 0,1 mm 1 m/S 733 mmHg 49%
    18:00 +23°C° 0,1 mm 1 m/S 733 mmHg 56%
    19:00 +21°C° 0,2 mm 2 m/S 733 mmHg 61%
    20:00 +19°C° 0,2 mm 2 m/S 733 mmHg 66%
    21:00 +17°C° 0,2 mm 3 m/S 734 mmHg 71%
    22:00 +17°C° 0,2 mm 2 m/S 734 mmHg 74%
    23:00 +16°C° 0,2 mm 2 m/S 734 mmHg 78%
    Mehr zeigen